STARLINK-34299

Last updated on Thu Jul 03 2025 00:02:06 GMT+0000 (Coordinated Universal Time)

1 64383U 25127P 25183.58335648 -.01716660 00000+0 -20379-1 0 9992 2 64383 43.0006 155.3815 0001389 271.9023 336.8481 15.63183659 4152
UTC large
Height (km)
Speed (km/s)
/
Latitude / Longitude
Inclination (degrees)
Orbital Period (minutes)
Azimuth
Elevation
Range (km)
Doppler Factor

Next 0 passes for location: London (51.5072 / 0.1276)

Sorry there are no passes over London.